Time,TemperatureF,DewpointF,PressureIn,WindDirection,WindDirectionDegrees,WindSpeedMPH,WindSpeedGustMPH,Humidity,HourlyPrecipIn,Conditions,Clouds,dailyrainin,SoftwareType,DateUTC
2013-02-11 00:00:00,38.5,35.5,30.29,WNW,284,0.0,0.0,89,0.00,,,0.06,Wunderground PWS Mod,2013-02-11 08:00:00,
2013-02-11 00:10:00,38.5,35.8,30.29,WNW,284,0.0,0.0,90,0.00,,,0.00,Wunderground PWS Mod,2013-02-11 08:10:00,
2013-02-11 00:20:00,38.5,35.8,30.29,WNW,284,0.0,0.0,90,0.00,,,0.00,Wunderground PWS Mod,2013-02-11 08:20:00,
2013-02-11 00:30:00,38.5,35.8,30.29,WNW,284,0.0,0.0,90,0.00,,,0.00,Wunderground PWS Mod,2013-02-11 08:30:00,
2013-02-11 00:40:00,38.5,35.8,30.30,WNW,284,0.0,0.0,90,0.00,,,0.00,Wunderground PWS Mod,2013-02-11 08:40:00,
2013-02-11 00:50:00,38.5,35.8,30.30,WNW,284,0.0,0.0,90,0.00,,,0.00,Wunderground PWS Mod,2013-02-11 08:50:00,
2013-02-11 00:59:00,38.5,35.8,30.30,N/A,-737280,0.0,0.0,90,0.00,,,0.00,Wunderground PWS Mod,2013-02-11 08:59:00,
2013-02-11 01:10:00,38.3,35.6,30.30,WNW,284,0.0,0.0,90,0.00,,,0.00,Wunderground PWS Mod,2013-02-11 09:10:00,
2013-02-11 01:20:00,38.3,35.6,30.30,WNW,284,0.0,0.0,90,0.00,,,0.00,Wunderground PWS Mod,2013-02-11 09:20:00,
2013-02-11 01:30:00,38.3,35.6,30.30,WNW,284,0.0,0.0,90,0.00,,,0.00,Wunderground PWS Mod,2013-02-11 09:30:00,
2013-02-11 01:40:00,38.3,35.6,30.30,WNW,284,0.0,0.0,90,0.00,,,0.00,Wunderground PWS Mod,2013-02-11 09:40:00,
2013-02-11 01:50:00,38.3,35.6,30.30,WNW,284,0.0,0.0,90,0.00,,,0.00,Wunderground PWS Mod,2013-02-11 09:50:00,
2013-02-11 02:00:00,38.3,35.6,30.30,WNW,284,0.0,0.0,90,0.00,,,0.00,Wunderground PWS Mod,2013-02-11 10:00:00,
2013-02-11 02:10:00,38.2,35.5,30.30,WNW,284,0.0,0.0,90,0.00,,,0.00,Wunderground PWS Mod,2013-02-11 10:10:00,
2013-02-11 02:20:00,38.2,35.5,30.29,WNW,284,0.0,0.0,90,0.00,,,0.00,Wunderground PWS Mod,2013-02-11 10:20:00,
2013-02-11 02:30:00,38.0,35.3,30.29,WNW,284,0.0,0.0,90,0.00,,,0.00,Wunderground PWS Mod,2013-02-11 10:30:00,
2013-02-11 02:40:00,37.9,35.2,30.29,WNW,284,0.0,0.0,90,0.00,,,0.00,Wunderground PWS Mod,2013-02-11 10:40:00,
2013-02-11 02:50:00,37.6,34.9,30.29,WNW,284,0.0,0.0,90,0.00,,,0.00,Wunderground PWS Mod,2013-02-11 10:50:00,
2013-02-11 03:00:00,37.5,34.8,30.29,WNW,284,0.0,0.0,90,0.00,,,0.00,Wunderground PWS Mod,2013-02-11 11:00:00,
2013-02-11 03:10:00,37.3,34.6,30.28,WNW,284,0.0,0.0,90,0.00,,,0.00,Wunderground PWS Mod,2013-02-11 11:10:00,
2013-02-11 03:20:00,37.2,34.8,30.28,WNW,284,0.0,0.0,91,0.00,,,0.00,Wunderground PWS Mod,2013-02-11 11:20:00,
2013-02-11 03:30:00,37.0,34.6,30.28,WNW,284,0.0,0.0,91,0.00,,,0.00,Wunderground PWS Mod,2013-02-11 11:30:00,
2013-02-11 03:40:00,36.9,34.5,30.27,WNW,284,0.0,0.0,91,0.00,,,0.00,Wunderground PWS Mod,2013-02-11 11:40:00,
2013-02-11 03:50:00,36.8,34.4,30.27,WNW,284,0.0,0.0,91,0.00,,,0.00,Wunderground PWS Mod,2013-02-11 11:50:00,
2013-02-11 04:00:00,36.8,34.4,30.27,WNW,284,0.0,0.0,91,0.00,,,0.00,Wunderground PWS Mod,2013-02-11 12:00:00,
2013-02-11 04:10:00,36.6,34.2,30.28,WNW,284,0.0,0.0,91,0.00,,,0.00,Wunderground PWS Mod,2013-02-11 12:10:00,
2013-02-11 04:20:00,36.6,34.2,30.28,WNW,284,0.0,0.0,91,0.00,,,0.00,Wunderground PWS Mod,2013-02-11 12:20:00,
2013-02-11 04:30:00,36.6,34.2,30.28,WNW,284,0.0,0.0,91,0.00,,,0.00,Wunderground PWS Mod,2013-02-11 12:30:00,
2013-02-11 04:40:00,36.6,34.2,30.29,WNW,284,0.0,0.0,91,0.00,,,0.00,Wunderground PWS Mod,2013-02-11 12:40:00,
2013-02-11 04:50:00,36.6,34.2,30.29,WNW,284,0.0,0.0,91,0.00,,,0.00,Wunderground PWS Mod,2013-02-11 12:50:00,
2013-02-11 05:00:00,36.5,34.1,30.29,WNW,284,0.0,0.0,91,0.00,,,0.00,Wunderground PWS Mod,2013-02-11 13:00:00,
2013-02-11 05:10:00,36.5,34.1,30.29,WNW,284,0.0,0.0,91,0.00,,,0.00,Wunderground PWS Mod,2013-02-11 13:10:00,
2013-02-11 05:20:00,36.5,34.1,30.29,WNW,284,0.0,0.0,91,0.00,,,0.00,Wunderground PWS Mod,2013-02-11 13:20:00,
2013-02-11 05:30:00,36.3,33.9,30.29,WNW,284,0.0,0.0,91,0.00,,,0.00,Wunderground PWS Mod,2013-02-11 13:30:00,
2013-02-11 05:40:00,36.2,33.8,30.29,WNW,284,0.0,0.0,91,0.00,,,0.00,Wunderground PWS Mod,2013-02-11 13:40:00,
2013-02-11 05:50:00,36.0,33.6,30.29,WNW,284,0.0,0.0,91,0.00,,,0.00,Wunderground PWS Mod,2013-02-11 13:50:00,
2013-02-11 06:00:00,36.0,33.6,30.29,N/A,-737280,0.0,0.0,91,0.00,,,0.00,Wunderground PWS Mod,2013-02-11 14:00:00,
2013-02-11 06:10:00,36.0,33.6,30.29,WNW,284,0.0,0.0,91,0.00,,,0.00,Wunderground PWS Mod,2013-02-11 14:10:00,
2013-02-11 06:20:00,36.0,33.6,30.29,WNW,284,0.0,0.0,91,0.00,,,0.00,Wunderground PWS Mod,2013-02-11 14:20:00,
2013-02-11 06:30:00,36.0,33.6,30.29,WNW,284,0.0,0.0,91,0.00,,,0.00,Wunderground PWS Mod,2013-02-11 14:30:00,
2013-02-11 06:40:00,36.0,33.6,30.29,WNW,284,0.0,0.0,91,0.00,,,0.00,Wunderground PWS Mod,2013-02-11 14:40:00,
2013-02-11 06:50:00,36.2,33.8,30.29,WNW,284,0.0,0.0,91,0.00,,,0.00,Wunderground PWS Mod,2013-02-11 14:50:00,
2013-02-11 07:00:00,36.2,33.8,30.29,WNW,284,0.0,0.0,91,0.00,,,0.00,Wunderground PWS Mod,2013-02-11 15:00:00,
2013-02-11 07:10:00,36.2,33.8,30.29,WNW,284,0.0,0.0,91,0.00,,,0.00,Wunderground PWS Mod,2013-02-11 15:10:00,
2013-02-11 07:20:00,36.2,33.8,30.29,WNW,284,0.0,0.0,91,0.00,,,0.00,Wunderground PWS Mod,2013-02-11 15:20:00,
2013-02-11 07:30:00,36.3,34.2,30.29,WNW,284,0.0,0.0,92,0.00,,,0.00,Wunderground PWS Mod,2013-02-11 15:30:00,
2013-02-11 07:40:00,36.5,34.4,30.29,WNW,284,0.0,1.0,92,0.00,,,0.00,Wunderground PWS Mod,2013-02-11 15:40:00,
2013-02-11 07:50:00,36.6,34.5,30.29,WNW,284,0.0,0.0,92,0.00,,,0.00,Wunderground PWS Mod,2013-02-11 15:50:00,
2013-02-11 08:00:00,36.6,34.5,30.29,WNW,284,0.0,0.0,92,0.00,,,0.00,Wunderground PWS Mod,2013-02-11 16:00:00,
2013-02-11 08:10:00,36.9,34.8,30.28,WNW,284,0.0,0.0,92,0.00,,,0.00,Wunderground PWS Mod,2013-02-11 16:10:00,
2013-02-11 08:20:00,37.0,34.9,30.29,WNW,284,0.0,0.0,92,0.00,,,0.00,Wunderground PWS Mod,2013-02-11 16:20:00,
2013-02-11 08:30:00,37.2,35.1,30.29,WNW,284,0.0,0.0,92,0.00,,,0.00,Wunderground PWS Mod,2013-02-11 16:30:00,
2013-02-11 08:40:00,37.3,35.2,30.29,WNW,284,0.0,0.0,92,0.00,,,0.00,Wunderground PWS Mod,2013-02-11 16:40:00,
2013-02-11 08:50:00,37.5,35.4,30.29,WNW,284,0.0,1.0,92,0.00,,,0.00,Wunderground PWS Mod,2013-02-11 16:50:00,
2013-02-11 09:00:00,37.6,35.5,30.29,WNW,282,0.0,2.0,92,0.00,,,0.00,Wunderground PWS Mod,2013-02-11 17:00:00,
2013-02-11 09:10:00,37.8,35.7,30.30,WNW,282,0.0,1.0,92,0.00,,,0.00,Wunderground PWS Mod,2013-02-11 17:10:00,
2013-02-11 09:20:00,37.8,36.0,30.31,WNW,282,0.0,0.0,93,0.00,,,0.00,Wunderground PWS Mod,2013-02-11 17:20:00,
2013-02-11 09:30:00,37.9,36.1,30.31,WNW,282,0.0,1.0,93,0.00,,,0.00,Wunderground PWS Mod,2013-02-11 17:30:00,
2013-02-11 09:40:00,38.2,36.4,30.31,SW,219,0.0,1.0,93,0.00,,,0.00,Wunderground PWS Mod,2013-02-11 17:40:00,
2013-02-11 09:50:00,38.5,36.7,30.31,SW,219,0.0,1.0,93,0.00,,,0.00,Wunderground PWS Mod,2013-02-11 17:50:00,
2013-02-11 10:00:00,38.6,36.8,30.31,SW,219,0.0,2.0,93,0.00,,,0.00,Wunderground PWS Mod,2013-02-11 18:00:00,
2013-02-11 10:10:00,38.9,37.0,30.31,SW,220,1.0,2.0,93,0.00,,,0.00,Wunderground PWS Mod,2013-02-11 18:10:00,
2013-02-11 10:19:00,38.9,37.0,30.31,SW,225,1.0,3.0,93,0.00,,,0.00,Wunderground PWS Mod,2013-02-11 18:19:00,
2013-02-11 10:30:00,39.2,37.1,30.31,SW,233,1.0,2.0,92,0.00,,,0.00,Wunderground PWS Mod,2013-02-11 18:30:00,
2013-02-11 10:40:00,39.5,37.4,30.31,SW,233,0.0,1.0,92,0.00,,,0.00,Wunderground PWS Mod,2013-02-11 18:40:00,
2013-02-11 10:50:00,39.8,37.7,30.31,SW,233,1.0,2.0,92,0.00,,,0.00,Wunderground PWS Mod,2013-02-11 18:50:00,
2013-02-11 11:00:00,40.1,37.7,30.31,SSW,212,1.0,3.0,91,0.00,,,0.00,Wunderground PWS Mod,2013-02-11 19:00:00,
2013-02-11 11:10:00,40.5,37.8,30.31,SSW,212,1.0,3.0,90,0.00,,,0.00,Wunderground PWS Mod,2013-02-11 19:10:00,
2013-02-11 11:20:00,40.6,37.6,30.31,SSW,212,1.0,2.0,89,0.00,,,0.00,Wunderground PWS Mod,2013-02-11 19:20:00,
2013-02-11 11:30:00,40.9,37.6,30.31,SSW,208,1.0,3.0,88,0.00,,,0.00,Wunderground PWS Mod,2013-02-11 19:30:00,
2013-02-11 11:40:00,41.2,37.3,30.31,South,176,1.0,3.0,86,0.00,,,0.00,Wunderground PWS Mod,2013-02-11 19:40:00,
2013-02-11 11:49:00,41.2,37.3,30.31,South,180,1.0,5.0,86,0.00,,,0.00,Wunderground PWS Mod,2013-02-11 19:49:00,
2013-02-11 12:00:00,41.8,37.3,30.30,SSW,200,1.0,2.0,84,0.00,,,0.00,Wunderground PWS Mod,2013-02-11 20:00:00,
2013-02-11 12:10:00,42.1,37.3,30.30,South,183,1.0,3.0,83,0.00,,,0.00,Wunderground PWS Mod,2013-02-11 20:10:00,
2013-02-11 12:20:00,42.2,37.1,30.29,SW,232,2.0,3.0,82,0.00,,,0.00,Wunderground PWS Mod,2013-02-11 20:20:00,
2013-02-11 12:30:00,42.3,36.6,30.29,South,170,1.0,4.0,80,0.00,,,0.00,Wunderground PWS Mod,2013-02-11 20:30:00,
2013-02-11 12:40:00,42.8,37.1,30.29,SSW,210,1.0,3.0,80,0.00,,,0.00,Wunderground PWS Mod,2013-02-11 20:40:00,
2013-02-11 12:50:00,42.9,36.8,30.29,South,175,1.0,3.0,79,0.00,,,0.00,Wunderground PWS Mod,2013-02-11 20:50:00,
2013-02-11 13:00:00,43.1,36.4,30.29,SSW,193,1.0,5.0,77,0.00,,,0.00,Wunderground PWS Mod,2013-02-11 21:00:00,
2013-02-11 13:10:00,43.2,36.5,30.29,South,190,1.0,3.0,77,0.00,,,0.00,Wunderground PWS Mod,2013-02-11 21:10:00,
2013-02-11 13:20:00,43.3,36.2,30.29,SSW,211,1.0,4.0,76,0.00,,,0.00,Wunderground PWS Mod,2013-02-11 21:20:00,
2013-02-11 13:30:00,43.3,35.9,30.29,SSW,211,1.0,2.0,75,0.00,,,0.00,Wunderground PWS Mod,2013-02-11 21:30:00,
2013-02-11 13:40:00,43.2,35.8,30.29,SSW,213,2.0,3.0,75,0.00,,,0.00,Wunderground PWS Mod,2013-02-11 21:40:00,
2013-02-11 13:50:00,43.3,35.9,30.29,South,178,1.0,2.0,75,0.00,,,0.00,Wunderground PWS Mod,2013-02-11 21:50:00,
2013-02-11 14:00:00,43.3,35.9,30.29,South,175,0.0,1.0,75,0.00,,,0.00,Wunderground PWS Mod,2013-02-11 22:00:00,
2013-02-11 14:10:00,43.5,36.1,30.29,South,174,0.0,1.0,75,0.00,,,0.00,Wunderground PWS Mod,2013-02-11 22:10:00,
2013-02-11 14:20:00,43.6,36.2,30.28,South,190,1.0,3.0,75,0.00,,,0.00,Wunderground PWS Mod,2013-02-11 22:20:00,
2013-02-11 14:30:00,43.8,36.4,30.28,SSW,202,0.0,3.0,75,0.00,,,0.00,Wunderground PWS Mod,2013-02-11 22:30:00,
2013-02-11 14:40:00,43.8,36.4,30.28,SW,215,1.0,3.0,75,0.00,,,0.00,Wunderground PWS Mod,2013-02-11 22:40:00,
2013-02-11 14:50:00,43.9,36.5,30.28,WSW,241,1.0,2.0,75,0.00,,,0.00,Wunderground PWS Mod,2013-02-11 22:50:00,
2013-02-11 15:00:00,43.9,36.8,30.28,SW,235,1.0,3.0,76,0.00,,,0.00,Wunderground PWS Mod,2013-02-11 23:00:00,
2013-02-11 15:10:00,44.1,37.0,30.28,South,169,1.0,3.0,76,0.00,,,0.00,Wunderground PWS Mod,2013-02-11 23:10:00,
2013-02-11 15:20:00,43.9,36.8,30.28,SSW,193,1.0,4.0,76,0.00,,,0.00,Wunderground PWS Mod,2013-02-11 23:20:00,
2013-02-11 15:30:00,43.8,36.7,30.28,SSW,194,1.0,2.0,76,0.00,,,0.00,Wunderground PWS Mod,2013-02-11 23:30:00,
2013-02-11 15:40:00,43.8,37.1,30.28,SSW,196,0.0,2.0,77,0.00,,,0.00,Wunderground PWS Mod,2013-02-11 23:40:00,
2013-02-11 15:50:00,43.8,37.1,30.28,SSW,196,0.0,3.0,77,0.00,,,0.00,Wunderground PWS Mod,2013-02-11 23:50:00,
2013-02-11 16:00:00,43.8,37.1,30.28,SSW,194,0.0,2.0,77,0.00,,,0.00,Wunderground PWS Mod,2013-02-12 00:00:00,
2013-02-11 16:10:00,43.6,36.9,30.29,SSW,194,0.0,2.0,77,0.00,,,0.00,Wunderground PWS Mod,2013-02-12 00:10:00,
2013-02-11 16:20:00,43.5,36.8,30.28,South,175,0.0,3.0,77,0.00,,,0.00,Wunderground PWS Mod,2013-02-12 00:20:00,
2013-02-11 16:30:00,43.3,36.9,30.28,South,175,0.0,2.0,78,0.00,,,0.00,Wunderground PWS Mod,2013-02-12 00:30:00,
2013-02-11 16:40:00,43.3,36.9,30.28,South,175,0.0,0.0,78,0.00,,,0.00,Wunderground PWS Mod,2013-02-12 00:40:00,
2013-02-11 16:50:00,43.2,37.1,30.29,South,175,0.0,1.0,79,0.00,,,0.00,Wunderground PWS Mod,2013-02-12 00:50:00,
2013-02-11 17:00:00,43.1,37.3,30.29,South,175,0.0,1.0,80,0.00,,,0.00,Wunderground PWS Mod,2013-02-12 01:00:00,
2013-02-11 17:10:00,42.9,37.5,30.29,South,175,0.0,1.0,81,0.00,,,0.00,Wunderground PWS Mod,2013-02-12 01:10:00,
2013-02-11 17:20:00,42.8,37.4,30.29,South,175,0.0,1.0,81,0.00,,,0.00,Wunderground PWS Mod,2013-02-12 01:20:00,
2013-02-11 17:30:00,42.6,37.5,30.29,South,175,0.0,2.0,82,0.00,,,0.00,Wunderground PWS Mod,2013-02-12 01:30:00,
2013-02-11 17:40:00,42.5,37.4,30.29,South,175,0.0,1.0,82,0.00,,,0.00,Wunderground PWS Mod,2013-02-12 01:40:00,
2013-02-11 17:49:00,42.3,37.5,30.29,South,175,0.0,1.0,83,0.00,,,0.00,Wunderground PWS Mod,2013-02-12 01:49:00,
2013-02-11 18:00:00,42.2,37.4,30.29,South,175,0.0,0.0,83,0.00,,,0.00,Wunderground PWS Mod,2013-02-12 02:00:00,
2013-02-11 18:10:00,41.9,37.1,30.29,South,175,0.0,1.0,83,0.00,,,0.00,Wunderground PWS Mod,2013-02-12 02:10:00,
2013-02-11 18:20:00,41.8,37.3,30.29,South,175,0.0,0.0,84,0.00,,,0.00,Wunderground PWS Mod,2013-02-12 02:20:00,
2013-02-11 18:30:00,41.6,37.1,30.29,South,175,0.0,0.0,84,0.00,,,0.00,Wunderground PWS Mod,2013-02-12 02:30:00,
2013-02-11 18:40:00,41.6,37.4,30.30,South,175,0.0,1.0,85,0.00,,,0.00,Wunderground PWS Mod,2013-02-12 02:40:00,
2013-02-11 18:50:00,41.5,37.6,30.30,South,175,0.0,0.0,86,0.00,,,0.00,Wunderground PWS Mod,2013-02-12 02:50:00,
2013-02-11 19:00:00,41.5,37.6,30.30,South,175,0.0,1.0,86,0.00,,,0.00,Wunderground PWS Mod,2013-02-12 03:00:00,
2013-02-11 19:10:00,41.5,37.6,30.29,South,175,1.0,3.0,86,0.00,,,0.00,Wunderground PWS Mod,2013-02-12 03:10:00,
2013-02-11 19:20:00,41.3,37.7,30.29,South,175,0.0,0.0,87,0.00,,,0.00,Wunderground PWS Mod,2013-02-12 03:20:00,
2013-02-11 19:30:00,41.3,37.7,30.29,South,175,0.0,0.0,87,0.00,,,0.00,Wunderground PWS Mod,2013-02-12 03:30:00,
2013-02-11 19:40:00,41.3,37.7,30.29,South,175,0.0,0.0,87,0.00,,,0.00,Wunderground PWS Mod,2013-02-12 03:40:00,
2013-02-11 19:50:00,41.3,37.7,30.29,N/A,-737280,0.0,0.0,87,0.00,,,0.00,Wunderground PWS Mod,2013-02-12 03:50:00,
2013-02-11 20:00:00,41.3,37.7,30.30,South,175,1.0,3.0,87,0.00,,,0.00,Wunderground PWS Mod,2013-02-12 04:00:00,
2013-02-11 20:10:00,41.2,37.9,30.29,South,175,1.0,2.0,88,0.00,,,0.00,Wunderground PWS Mod,2013-02-12 04:10:00,
2013-02-11 20:20:00,41.1,37.8,30.29,South,175,1.0,2.0,88,0.00,,,0.00,Wunderground PWS Mod,2013-02-12 04:20:00,
2013-02-11 20:30:00,40.9,37.6,30.29,South,180,1.0,2.0,88,0.00,,,0.00,Wunderground PWS Mod,2013-02-12 04:30:00,
2013-02-11 20:40:00,40.6,37.3,30.29,South,175,0.0,2.0,88,0.00,,,0.00,Wunderground PWS Mod,2013-02-12 04:40:00,
2013-02-11 20:50:00,40.6,37.6,30.29,South,175,0.0,2.0,89,0.00,,,0.00,Wunderground PWS Mod,2013-02-12 04:50:00,
2013-02-11 21:00:00,40.6,37.6,30.29,South,175,1.0,2.0,89,0.00,,,0.00,Wunderground PWS Mod,2013-02-12 05:00:00,
2013-02-11 21:10:00,40.6,37.6,30.29,South,175,1.0,2.0,89,0.00,,,0.00,Wunderground PWS Mod,2013-02-12 05:10:00,
2013-02-11 21:20:00,40.8,38.1,30.28,South,175,0.0,2.0,90,0.00,,,0.00,Wunderground PWS Mod,2013-02-12 05:20:00,
2013-02-11 21:30:00,40.8,38.1,30.28,South,175,0.0,2.0,90,0.00,,,0.00,Wunderground PWS Mod,2013-02-12 05:30:00,
2013-02-11 21:40:00,40.8,38.1,30.29,South,175,0.0,1.0,90,0.00,,,0.00,Wunderground PWS Mod,2013-02-12 05:40:00,
2013-02-11 21:50:00,40.8,38.1,30.29,South,175,0.0,0.0,90,0.00,,,0.00,Wunderground PWS Mod,2013-02-12 05:50:00,
2013-02-11 22:00:00,40.8,38.1,30.29,South,175,0.0,1.0,90,0.00,,,0.00,Wunderground PWS Mod,2013-02-12 06:00:00,
2013-02-11 22:10:00,40.8,38.1,30.30,South,175,0.0,0.0,90,0.00,,,0.00,Wunderground PWS Mod,2013-02-12 06:10:00,
2013-02-11 22:20:00,40.8,38.1,30.29,South,175,0.0,0.0,90,0.00,,,0.00,Wunderground PWS Mod,2013-02-12 06:20:00,
2013-02-11 22:30:00,40.8,38.1,30.29,South,175,0.0,0.0,90,0.00,,,0.00,Wunderground PWS Mod,2013-02-12 06:30:00,
2013-02-11 22:40:00,40.8,38.1,30.29,South,175,0.0,0.0,90,0.00,,,0.00,Wunderground PWS Mod,2013-02-12 06:40:00,
2013-02-11 22:50:00,40.9,38.2,30.30,South,175,0.0,0.0,90,0.00,,,0.00,Wunderground PWS Mod,2013-02-12 06:50:00,
2013-02-11 23:00:00,40.9,38.2,30.30,South,175,0.0,0.0,90,0.00,,,0.00,Wunderground PWS Mod,2013-02-12 07:00:00,
2013-02-11 23:10:00,41.1,38.4,30.30,South,175,0.0,0.0,90,0.00,,,0.00,Wunderground PWS Mod,2013-02-12 07:10:00,
2013-02-11 23:20:00,41.3,38.9,30.30,South,175,0.0,1.0,91,0.00,,,0.00,Wunderground PWS Mod,2013-02-12 07:20:00,
2013-02-11 23:30:00,41.5,39.1,30.30,South,175,0.0,1.0,91,0.00,,,0.00,Wunderground PWS Mod,2013-02-12 07:30:00,
2013-02-11 23:40:00,41.5,39.1,30.30,South,175,0.0,1.0,91,0.00,,,0.00,Wunderground PWS Mod,2013-02-12 07:40:00,
2013-02-11 23:50:00,41.6,39.2,30.30,South,175,0.0,0.0,91,0.00,,,0.00,Wunderground PWS Mod,2013-02-12 07:50:00,
2013-02-11 23:59:00,41.6,39.2,30.30,N/A,-737280,0.0,0.0,91,0.00,,,0.00,Wunderground PWS Mod,2013-02-12 07:59:00,